Manistique, MI

12:39 PM EST on November 23, 2017 (GMT -0500)
Schoolcraft County

Weather History for KISQ - November, 2012

Change the Weather History Date:

Friday, November 2, 2012

  Actual Average Record
Temperature  
Mean Temperature 36 °F -  
Max Temperature 39 °F 47 °F 62 °F (1975)
Min Temperature 32 °F 34 °F 12 °F (1951)
Degree Days  
Heating Degree Days 30    
Moisture  
Dew Point 29 °F    
Average Humidity 81    
Maximum Humidity 87    
Minimum Humidity 70    
Precipitation  
Precipitation 0.00 in - - ()
Sea Level Pressure  
Sea Level Pressure 30.01 in    
Wind  
Wind Speed 10 mph (NNW)    
Max Wind Speed 18 mph    
Max Gust Speed 31 mph    
Visibility 10 miles    
Events Rain , Snow    
Averages and records for this station are not official NWS values.
T = Trace of Precipitation, MM = Missing Value Source: NWS Daily Summary

Daily Weather History Graph

Daily Weather History Graph

Search for Another Location

Airport or City:

Trip Planner

Search our weather history database for the weather conditions in past years. The results will help you decide how hot, cold, wet, or windy it might be!

Date:

Astronomy

Nov. 02, 2012 Rise Set
Actual Time 8:27 AM EDT 6:28 PM EDT
Civil Twilight 7:55 AM EDT 6:59 PM EDT
Nautical Twilight 7:20 AM EDT 7:35 PM EDT
Astronomical Twilight 6:45 AM EDT 8:09 PM EDT
Moon 9:08 PM EDT (11/2) 11:54 AM EDT (11/2)
Length of Visible Light 11h 03m
Length of Day
10h 01m
Waning Gibbous, 87% of the Moon is Illuminated
Nov 2
Waning Gibbous
Nov 6
Last Quarter
Nov 13
New
Nov 20
First Quarter
Nov 28
Full

Hourly Weather History & Observations

Time (EDT) Temp. Windchill Dew Point Humidity Pressure Visibility Wind Dir Wind Speed Gust Speed Precip Events Conditions
12:15 AM 33.8 °F 24.8 °F 30.2 °F 87% 29.85 in 10.0 mi NNW 12.7 mph 20.7 mph N/A Snow Light Snow
12:35 AM 33.8 °F 25.3 °F 30.2 °F 87% 29.86 in 10.0 mi NNW 11.5 mph 18.4 mph N/A   Overcast
12:54 AM 33.8 °F 27.0 °F 30.2 °F 87% 29.87 in 10.0 mi North 8.1 mph 16.1 mph N/A   Overcast
1:15 AM 33.8 °F 25.3 °F 30.2 °F 87% 29.87 in 10.0 mi NNW 11.5 mph - N/A Snow Light Snow
1:34 AM 33.8 °F 26.4 °F 28.4 °F 81% 29.87 in 10.0 mi NNW 9.2 mph 17.3 mph N/A Snow Light Snow
1:54 AM 33.8 °F 26.4 °F 28.4 °F 81% 29.88 in 10.0 mi NNW 9.2 mph - N/A   Overcast
2:15 AM 33.8 °F 24.8 °F 28.4 °F 81% 29.88 in 10.0 mi NNW 12.7 mph 18.4 mph N/A   Overcast
2:34 AM 33.8 °F 26.4 °F 28.4 °F 81% 29.89 in 10.0 mi NNW 9.2 mph 19.6 mph N/A   Overcast
2:55 AM 32.0 °F 23.6 °F 28.4 °F 87% 29.89 in 10.0 mi NNW 10.4 mph - N/A   Overcast
3:14 AM 33.8 °F 27.0 °F 28.4 °F 81% 29.90 in 10.0 mi NNW 8.1 mph - N/A   Overcast
3:34 AM 33.8 °F 26.4 °F 28.4 °F 81% 29.90 in 10.0 mi NNW 9.2 mph - N/A   Overcast
3:55 AM 33.8 °F 27.7 °F 28.4 °F 81% 29.91 in 10.0 mi NW 6.9 mph - N/A   Overcast
4:14 AM 33.8 °F 27.7 °F 28.4 °F 81% 29.91 in 10.0 mi NW 6.9 mph - N/A   Overcast
4:34 AM 33.8 °F 28.6 °F 28.4 °F 81% 29.91 in 10.0 mi NW 5.8 mph - N/A Snow Light Snow
4:54 AM 33.8 °F 25.8 °F 28.4 °F 81% 29.92 in 10.0 mi NW 10.4 mph - N/A Snow Light Snow
5:15 AM 33.8 °F 25.3 °F 28.4 °F 81% 29.92 in 10.0 mi NW 11.5 mph - N/A   Overcast
5:34 AM 33.8 °F 25.8 °F 28.4 °F 81% 29.92 in 10.0 mi NNW 10.4 mph - N/A Snow Light Snow
5:55 AM 33.8 °F 27.7 °F 28.4 °F 81% 29.93 in 10.0 mi NW 6.9 mph - N/A   Overcast
6:15 AM 33.8 °F 26.4 °F 30.2 °F 87% 29.93 in 10.0 mi NW 9.2 mph - N/A   Overcast
6:34 AM 33.8 °F 27.0 °F 28.4 °F 81% 29.94 in 10.0 mi NNW 8.1 mph - N/A   Overcast
6:55 AM 33.8 °F 26.4 °F 28.4 °F 81% 29.94 in 10.0 mi NNW 9.2 mph - N/A   Overcast
7:14 AM 33.8 °F 26.4 °F 28.4 °F 81% 29.95 in 7.0 mi NNW 9.2 mph 16.1 mph N/A Snow Light Snow
7:34 AM 33.8 °F 25.8 °F 30.2 °F 87% 29.95 in 10.0 mi NNW 10.4 mph 16.1 mph N/A Snow Light Snow
7:54 AM 33.8 °F 27.0 °F 30.2 °F 87% 29.96 in 10.0 mi NNW 8.1 mph - N/A Snow Light Snow
8:14 AM 33.8 °F 27.0 °F 28.4 °F 81% 29.96 in 10.0 mi NNW 8.1 mph - N/A Snow Light Snow
8:35 AM 33.8 °F 27.0 °F 28.4 °F 81% 29.97 in 7.0 mi NW 8.1 mph - N/A Snow Light Snow
8:54 AM 33.8 °F 26.4 °F 30.2 °F 87% 29.98 in 7.0 mi NNW 9.2 mph - N/A Snow Light Snow
9:15 AM 33.8 °F 26.4 °F 30.2 °F 87% 29.98 in 10.0 mi NNW 9.2 mph - N/A Snow Light Snow
9:35 AM 33.8 °F 26.4 °F 30.2 °F 87% 29.99 in 10.0 mi NNW 9.2 mph - N/A   Overcast
9:54 AM 33.8 °F 27.0 °F 30.2 °F 87% 30.00 in 10.0 mi NNW 8.1 mph - N/A   Overcast
10:15 AM 33.8 °F 25.8 °F 30.2 °F 87% 30.00 in 10.0 mi NNW 10.4 mph 16.1 mph N/A Snow Light Snow
10:34 AM 35.6 °F 27.5 °F 30.2 °F 81% 30.00 in 10.0 mi North 11.5 mph 16.1 mph N/A   Overcast
10:55 AM 35.6 °F 28.6 °F 30.2 °F 81% 30.00 in 10.0 mi NNW 9.2 mph 18.4 mph N/A   Overcast
11:15 AM 35.6 °F 27.5 °F 30.2 °F 81% 30.02 in 10.0 mi NNW 11.5 mph 18.4 mph N/A   Overcast
11:34 AM 35.6 °F 27.5 °F 30.2 °F 81% 30.02 in 10.0 mi NNW 11.5 mph 17.3 mph N/A   Overcast
11:55 AM 37.4 °F 30.8 °F 30.2 °F 75% 30.03 in 10.0 mi NNW 9.2 mph 16.1 mph N/A   Overcast
12:14 PM 37.4 °F 31.4 °F 30.2 °F 75% 30.03 in 10.0 mi NNW 8.1 mph 20.7 mph N/A   Overcast
12:35 PM 37.4 °F 28.5 °F 30.2 °F 75% 30.03 in 10.0 mi NNW 15.0 mph 25.3 mph N/A   Overcast
12:54 PM 37.4 °F 27.5 °F 30.2 °F 75% 30.04 in 10.0 mi NNW 18.4 mph 31.1 mph N/A   Overcast
1:14 PM 37.4 °F 28.5 °F 30.2 °F 75% 30.04 in 10.0 mi NNW 15.0 mph 23.0 mph N/A   Overcast
1:35 PM 37.4 °F 29.3 °F 32.0 °F 81% 30.04 in 10.0 mi NNW 12.7 mph 20.7 mph N/A Rain Light Rain
1:54 PM 35.6 °F 28.0 °F 30.2 °F 81% 30.05 in 4.0 mi NNW 10.4 mph 18.4 mph N/A Snow Light Snow
2:15 PM 35.6 °F 27.5 °F 32.0 °F 87% 30.05 in 7.0 mi North 11.5 mph 19.6 mph N/A Rain Rain
2:34 PM 37.4 °F 28.2 °F 30.2 °F 75% 30.05 in 10.0 mi North 16.1 mph 25.3 mph N/A   Overcast
2:54 PM 37.4 °F 28.2 °F 32.0 °F 81% 30.05 in 10.0 mi NNW 16.1 mph 19.6 mph N/A   Overcast
3:15 PM 35.6 °F 27.1 °F 30.2 °F 81% 30.06 in 10.0 mi North 12.7 mph 17.3 mph N/A   Mostly Cloudy
3:34 PM 37.4 °F 30.3 °F 30.2 °F 75% 30.06 in 10.0 mi NNW 10.4 mph - N/A Rain Light Rain
3:55 PM 39.2 °F 31.6 °F 30.2 °F 70% 30.06 in 10.0 mi NNW 12.7 mph 20.7 mph N/A   Overcast
4:14 PM 37.4 °F 28.9 °F 28.4 °F 70% 30.07 in 10.0 mi North 13.8 mph 21.9 mph N/A   Overcast
4:35 PM 37.4 °F 28.9 °F 30.2 °F 75% 30.08 in 10.0 mi NNW 13.8 mph 23.0 mph N/A   Overcast
4:54 PM 35.6 °F 27.5 °F 30.2 °F 81% 30.08 in 7.0 mi NNW 11.5 mph - N/A Snow Light Snow
5:15 PM 35.6 °F 26.2 °F 30.2 °F 81% 30.09 in 10.0 mi NW 15.0 mph 20.7 mph N/A   Mostly Cloudy
5:35 PM 35.6 °F 28.0 °F 30.2 °F 81% 30.09 in 10.0 mi NNW 10.4 mph 20.7 mph N/A   Mostly Cloudy
5:54 PM 33.8 °F 26.4 °F 28.4 °F 81% 30.09 in 10.0 mi NNW 9.2 mph - N/A   Mostly Cloudy
6:15 PM 33.8 °F 27.0 °F 28.4 °F 81% 30.10 in 5.0 mi NNW 8.1 mph 18.4 mph N/A Snow Snow
6:34 PM 33.8 °F 26.4 °F 28.4 °F 81% 30.10 in 10.0 mi North 9.2 mph - N/A Snow Light Snow
6:54 PM 33.8 °F 26.4 °F 28.4 °F 81% 30.11 in 10.0 mi NNW 9.2 mph 16.1 mph N/A   Mostly Cloudy
7:15 PM 33.8 °F 26.4 °F 28.4 °F 81% 30.12 in 10.0 mi NW 9.2 mph - N/A   Mostly Cloudy
7:34 PM 33.8 °F 26.4 °F 28.4 °F 81% 30.12 in 10.0 mi NNW 9.2 mph - N/A   Mostly Cloudy
7:55 PM 32.0 °F 24.8 °F 28.4 °F 87% 30.13 in 10.0 mi NNW 8.1 mph - N/A   Scattered Clouds
8:14 PM 32.0 °F 24.2 °F 28.4 °F 87% 30.13 in 10.0 mi NNW 9.2 mph 16.1 mph N/A   Mostly Cloudy
8:34 PM 32.0 °F 25.6 °F 28.4 °F 87% 30.13 in 10.0 mi North 6.9 mph - N/A   Overcast
8:55 PM 32.0 °F 24.8 °F 28.4 °F 87% 30.13 in 10.0 mi North 8.1 mph - N/A   Overcast
9:14 PM 32.0 °F 26.4 °F 28.4 °F 87% 30.13 in 10.0 mi NNW 5.8 mph - N/A   Overcast
9:35 PM 33.8 °F 27.0 °F 28.4 °F 81% 30.13 in 10.0 mi North 8.1 mph - N/A   Overcast
9:55 PM 33.8 °F 27.7 °F 28.4 °F 81% 30.14 in 10.0 mi North 6.9 mph - N/A   Overcast
10:14 PM 33.8 °F 27.7 °F 28.4 °F 81% 30.14 in 10.0 mi North 6.9 mph - N/A   Overcast
10:35 PM 32.0 °F 26.4 °F 26.6 °F 80% 30.15 in 10.0 mi NW 5.8 mph - N/A   Overcast
10:54 PM 33.8 °F 30.8 °F 26.6 °F 75% 30.15 in 10.0 mi WNW 3.5 mph - N/A   Overcast
11:35 PM 33.8 °F 29.6 °F 26.6 °F 75% 30.16 in 10.0 mi North 4.6 mph - N/A   Overcast
11:54 PM 33.8 °F 29.6 °F 26.6 °F 75% 30.16 in 10.0 mi North 4.6 mph - N/A   Overcast